Location: Zagreb
(45.8000°N, 16.0000°E)
Time: 18:51:12
(UTC+02:00)

A-11 Canister half - Pass Details

Date: 16 August 2022
Orbit: 1524 x 1684 km, 47.3° (Epoch: 05 October)

Event Time Altitude Azimuth Distance (km) Brightness Sun altitude
Rises 11:00:37 0° 292° (WNW) 4,942 11.3 49.2°
Reaches altitude 10° 11:03:52 10° 289° (WNW) 3,947 10.9 49.6°
Maximum altitude 11:13:40 57° 214° (SW) 1,907 10.4 50.8°
Drops below altitude 10° 11:23:12 10° 140° (SE) 3,846 12.0 51.9°
Sets 11:26:20 0° 136° (SE) 4,809 12.2 52.3°
